Tracking 19177 objects as of 24-May-2018
HD Live streaming from Space Station
objects crossing your sky now

COSMOS 588

Track COSMOS 588 now!
10-day predictions
COSMOS 588 is classified as:


NORAD ID: 6845
Int'l Code: 1973-069A
Perigee: 1,454.8 km
Apogee: 1,500.3 km
Inclination: 74.0 °
Period: 115.3 minutes
Semi major axis: 7848 km
RCS: 0.707 m2 (medium)
Launch date: October 2, 1973
Source: Commonwealth of Independent States (former USSR) (CIS)
Launch site: PLESETSK MISSILE AND SPACE COMPLEX (PKMTR)
aabbcc
Your satellite tracking list
Your tracking list is empty




NASA's NSSDC Master Catalog

Two Line Element Set (TLE):
1 06845U 73069A   18143.86777566  .00000001  00000-0  11309-3 0  9995
2 06845  74.0001 303.5896 0029018 242.2401 226.5057 12.48591710 34828
Source of the keplerian elements: AFSPC